Flag for Mexico Weather past 2 weeks in Querétaro, Querétaro, Mexico

Now
72 °F

Passing clouds.


Feels Like: 76 °F
Forecast: 48 / 80 °F
Wind: 13 mph from Northeast

Location: Queretaro - Qro.

Current Time: Mar 30, 2015 at 8:04:08 PM

Latest Report: Mar 30, 2015 at 6:49 PM


Visibility: 12 mi

Pressure: 30.26 "Hg

Humidity: 29%

Dew point: 37 °F

Location of QuerétaroLocation

Historic Weather in Querétaro — Graph

°F

Querétaro temperature yesterday

Maximum temperature yesterday: 75 °F (at 1:55 PM)
Minimum temperature yesterday: 48 °F (at 6:45 AM)
Average temperature yesterday: 62 °F

Past Weeks' High & Low Weather Summary

 TemperatureHumidityPressure
High81 °F (Mar 25, 3:45 PM)100% (Mar 21, 3:45 AM)30.45 "Hg (Mar 21, 3:45 AM)
Low45 °F (Mar 30, 6:45 AM)21% (Mar 30, 3:45 PM)30.14 "Hg (Mar 19, 4:45 PM)
Average61 °F67%30.31 "Hg
* Reported Mar 15 6:45 PM — Mar 30 6:49 PM, Querétaro, Weather by CustomWeather, © 2015

Note: Actual official high and low records may vary slightly from our data, if they occured in-between our weather recording intervals... More about our weather records

Advertising

Querétaro weather history for previous 24 hours

 ConditionsComfort  
Time TempWeatherWind HumidityBarometerVisibility
6:49 PM
Mon, Mar 30
72 °FPassing clouds.13 mph29%30.26 "Hg12 mi
4:45 PM77 °FScattered clouds.2 mph21%30.26 "Hg12 mi
3:45 PM77 °FScattered clouds.3 mph21%30.28 "Hg12 mi
2:45 PM77 °FScattered clouds.7 mph22%30.31 "Hg12 mi
12:49 PM75 °FPassing clouds.6 mph22%30.39 "Hg10 mi
11:47 AM75 °FSunny.5 mph25%30.42 "Hg10 mi
10:45 AM70 °FSunny.7 mph27%30.44 "Hg7 mi
8:48 AM57 °FSunny.No wind59%30.44 "Hg7 mi
7:45 AM50 °FSunny.No wind82%30.42 "Hg8 mi
6:45 AM45 °FSunny.No wind87%30.40 "Hg8 mi
5:45 AM46 °FPassing clouds.No wind82%30.37 "Hg7 mi
4:45 AM46 °FPassing clouds.6 mph82%30.35 "Hg8 mi
2:45 AM50 °FPassing clouds.7 mph76%30.35 "Hg7 mi
1:45 AM52 °FPassing clouds.6 mph77%30.39 "Hg7 mi
12:45 AM54 °FPassing clouds.5 mph72%30.41 "Hg10 mi
11:45 PM
Sun, Mar 29
55 °FPassing clouds.6 mph63%30.42 "Hg10 mi
10:45 PM54 °FPassing clouds.7 mph67%30.41 "Hg10 mi
9:45 PM59 °FPassing clouds.7 mph55%30.39 "Hg10 mi
8:45 PM64 °FPassing clouds.10 mph46%30.36 "Hg8 mi
Weather by CustomWeather, © 2015

See weather overviewHow to use our weather pages